Wetbulb
55.51 54.06 53.16 53.55 53.38 53.01 52.75 52.64 52.79 52.58 52.63 55.39 55.30 54.36 51.97 51.78 51.57 51.82 52.03 52.15 51.98 51.51 51.87 53.13 54.08 55.08 51.16 45.07 44.44 52.57 59.21 59.10 52.53 49.78 46.93 42.33 38.79 36.39 33.04 32.90 34.50 31.98 34.24 36.98 37.98 37.88 37.08
53.92 53.17 53.46 53.46 52.97 52.71 52.84 52.54 52.14 52.65 52.21 53.75 53.28 52.83 51.23 51.85 51.70 51.75 51.80 51.93 52.22 51.77 51.72 52.97 54.41 56.25 49.24 41.75 51.79 55.44 54.09 52.89 50.31 48.71 44.73 42.73 39.92 39.59 35.52 32.90 31.57 34.42 35.45 35.57 36.76 36.59 36.99
53.30 52.94 53.26 53.48 52.99 53.01 52.83 52.54 52.39 52.26 52.25 51.50 51.60 51.65 51.46 51.28 51.19 51.47 51.57 51.64 51.90 52.13 52.34 52.99 54.83 52.20 47.07 44.90 52.91 54.48 51.99 51.44 49.59 47.48 42.64 43.75 43.23 39.24 36.95 32.63 36.65 35.79 30.72 32.96 33.58 34.94 34.20
53.01 52.73 53.02 53.27 52.83 53.02 52.69 52.59 52.24 52.12 52.14 51.71 50.86 51.13 51.06 50.99 51.16 51.35 51.29 51.67 52.40 54.03 52.74 53.52 55.79 50.86 43.11 52.38 54.42 52.31 50.79 47.76 47.87 47.26 45.33 45.17 44.77 40.72 37.10 36.40 34.42 29.91 29.00 23.94 31.14 34.96 36.09
52.82 52.75 52.45 52.68 53.14 53.17 53.11 52.90 52.47 52.12 51.74 51.47 51.35 51.15 51.07 50.94 50.90 50.87 50.99 51.16 53.72 56.38 55.58 56.19 50.57 47.83 42.04 52.98 49.79 50.51 50.35 45.44 45.60 46.05 46.40 47.35 43.01 37.05 36.87 28.46 24.56 26.88 17.47 25.02 28.85 35.39 34.77
52.49 52.87 52.18 52.73 53.31 53.32 53.53 53.14 52.84 52.41 51.81 51.24 50.89 50.61 50.60 50.54 50.21 50.18 49.12 50.15 51.90 52.61 52.13 51.51 50.01 43.32 45.18 44.08 47.05 48.01 48.31 47.76 43.87 42.41 41.28 39.94 36.32 30.35 30.29 24.91 15.45 20.87 17.65 25.48 26.05 31.98 33.97
52.30 52.49 52.72 52.55 52.97 53.52 53.55 53.19 52.61 52.48 51.69 51.16 50.71 50.50 50.37 50.17 49.95 49.12 43.99 42.86 41.88 42.54 45.49 42.54 42.82 42.36 44.25 47.17 49.23 45.87 48.06 45.23 43.91 38.89 30.59 35.26 28.32 21.31 26.58 28.25 27.05 25.40 24.33 24.62 28.66 33.32 32.04
51.93 52.27 52.45 52.23 53.24 53.80 53.32 52.71 52.06 52.33 52.06 50.99 50.61 50.28 50.20 49.20 49.71 49.03 42.23 39.13 40.01 41.70 39.59 45.66 45.34 44.92 45.98 46.95 40.88 43.88 47.62 39.69 37.79 31.22 33.74 29.77 25.05 30.58 32.33 31.14 29.79 28.50 25.76 25.94 30.53 34.19 33.21
51.63 51.94 52.25 52.61 53.47 53.54 52.59 51.49 51.01 51.21 51.49 50.80 50.51 50.43 49.94 48.34 48.19 43.28 41.94 41.65 45.76 44.82 38.98 40.17 44.22 43.83 44.08 45.91 40.77 40.89 44.30 40.75 35.72 32.06 31.76 27.16 30.25 35.42 32.60 30.11 28.56 27.62 25.77 26.78 27.86 32.16 35.10
51.46 51.73 51.97 52.27 53.32 53.35 52.26 50.80 50.56 51.38 51.35 50.63 50.32 50.22 49.28 46.88 41.74 40.02 40.04 46.38 47.58 46.37 27.07 32.96 38.14 40.81 44.25 44.83 38.54 45.23 46.21 41.24 37.73 32.43 32.84 30.10 34.26 33.00 31.48 29.97 31.44 28.01 32.42 31.80 30.79 30.66 26.98
51.27 51.60 51.53 51.98 52.99 53.47 52.55 50.94 50.68 51.18 51.44 50.36 49.96 49.81 48.35 46.56 38.53 39.51 43.67 47.00 46.42 41.59 17.92 35.24 37.87 46.03 44.22 40.41 40.13 40.58 46.48 42.92 36.81 35.79 34.96 29.07 31.39 33.30 33.53 34.29 35.39 31.57 35.66 34.51 34.44 33.23 31.77
51.05 51.44 51.43 51.70 52.21 52.90 53.02 52.52 51.46 50.16 50.43 50.10 49.64 49.02 47.32 42.95 40.62 43.47 45.51 45.75 41.76 25.10 19.66 32.86 38.10 37.65 37.33 39.24 39.87 41.62 40.35 43.46 41.86 37.79 37.09 33.27 37.23 36.97 35.10 37.29 37.07 37.52 34.86 33.97 33.13 32.26 25.21
51.34 51.17 51.31 51.33 51.48 51.98 52.74 52.58 52.67 51.95 49.38 48.97 48.97 48.84 45.91 44.22 38.24 44.07 43.44 40.32 22.98 18.32 34.38 32.07 33.72 37.19 36.56 36.47 36.81 38.29 36.37 34.45 32.40 29.01 27.28 32.64 35.01 39.13 40.05 35.77 37.74 36.23 33.32 23.67 19.83 26.55 23.41
51.93 50.46 51.02 51.21 51.29 51.41 51.95 52.40 52.43 52.59 52.19 49.17 48.37 47.00 44.50 44.54 43.67 43.00 38.72 28.95 19.58 31.48 32.05 36.17 35.16 36.08 32.58 35.19 35.06 36.63 35.13 33.01 35.38 34.58 32.01 26.13 21.12 35.38 38.88 36.69 35.44 36.38 35.79 27.57 20.32 20.15 25.17
52.25 50.02 50.87 51.17 51.35 51.22 51.49 51.74 51.78 51.72 52.43 50.98 47.88 39.34 39.56 41.55 44.04 41.23 32.94 25.10 29.20 31.42 35.18 33.50 34.46 31.38 33.32 36.77 37.19 35.83 35.45 34.52 37.58 36.45 31.06 31.97 28.66 38.41 39.22 39.86 39.50 36.60 33.07 38.18 31.73 32.15 27.52
52.38 50.73 50.38 50.72 51.28 51.01 51.09 51.32 51.46 51.80 52.24 49.81 37.19 36.18 36.96 42.33 42.44 37.80 32.51 31.57 32.81 36.87 37.65 36.49 29.25 32.06 28.94 33.31 33.88 34.39 35.44 38.31 38.13 39.15 39.48 36.53 29.67 35.23 37.56 39.67 39.76 38.29 39.98 31.50 31.99 23.33 21.91
52.23 51.40 49.62 50.56 50.50 50.58 50.76 51.36 51.63 51.92 52.53 47.70 35.89 33.65 40.67 43.55 40.55 35.48 30.43 32.58 34.34 37.41 37.51 34.44 30.44 32.88 33.53 32.78 34.88 34.36 33.06 36.18 39.62 38.59 39.63 38.13 34.64 31.19 35.45 34.72 33.28 36.02 35.07 35.10 33.39 31.69 25.28
52.64 51.72 49.87 49.91 50.08 50.25 50.57 50.73 51.49 51.72 51.90 41.68 34.75 28.72 41.76 41.78 32.40 28.21 27.70 32.19 38.22 35.36 37.30 35.94 34.91 33.02 32.31 33.67 31.18 31.09 32.18 35.11 39.68 38.98 35.12 37.25 33.38 27.64 31.64 36.54 39.00 36.30 33.90 34.64 28.55 27.75 28.46
52.77 51.78 50.53 48.86 49.83 49.80 50.46 50.76 50.81 51.54 50.13 38.10 32.01 29.48 40.55 40.24 26.89 25.78 31.08 33.48 34.66 35.10 35.28 35.57 34.67 35.34 34.44 31.49 29.48 33.18 33.71 38.87 39.95 38.20 34.66 36.07 30.38 26.66 27.77 31.99 35.64 31.92 33.14 33.31 33.29 31.40 25.24
52.82 51.73 50.69 48.82 49.69 49.69 50.65 51.11 51.34 51.50 50.76 37.90 32.27 26.48 33.59 35.13 32.87 29.60 29.25 30.41 31.42 36.64 35.70 36.54 35.44 35.20 33.30 31.69 33.21 30.99 32.90 37.71 38.75 38.03 43.61 39.12 30.40 28.68 24.48 28.40 31.21 30.01 32.03 34.15 31.19 27.81 29.28
53.23 51.71 50.55 48.81 49.76 49.99 50.98 51.45 51.74 51.78 50.11 38.44 31.99 27.74 31.10 24.96 29.85 29.48 29.25 30.51 31.27 32.22 36.35 36.79 34.58 34.59 32.15 29.42 30.27 30.45 33.20 34.18 37.32 38.74 36.20 34.35 28.75 26.55 29.86 31.48 31.11 30.77 30.07 32.32 32.18 31.03 30.38
53.45 51.75 50.58 48.82 49.84 50.17 51.47 52.30 52.00 51.31 47.74 36.46 31.86 30.67 31.33 29.35 30.54 28.06 29.88 29.77 31.45 33.18 34.79 33.85 33.05 34.78 34.38 31.27 29.87 29.66 32.12 31.16 29.77 33.95 32.90 33.32 26.93 28.96 26.41 29.30 29.92 28.99 30.55 30.98 31.53 31.84 33.39
53.92 51.71 50.35 48.76 49.80 50.67 51.97 52.41 51.66 50.18 44.20 35.31 35.53 36.12 32.65 29.09 27.95 27.56 27.43 29.44 32.89 34.39 36.28 36.83 34.74 33.24 33.18 34.66 36.14 36.45 35.93 34.69 32.75 30.11 30.79 30.32 27.74 25.62 21.78 25.90 26.59 23.93 27.83 28.87 30.36 31.50 32.17
53.97 51.50 49.96 48.56 49.77 51.12 51.64 51.94 50.68 50.17 44.52 37.85 36.09 34.93 30.23 27.36 29.35 30.57 31.77 32.27 32.68 33.24 32.84 36.88 35.41 32.78 36.37 38.88 36.62 34.20 32.74 33.91 33.03 32.67 32.51 29.46 27.06 24.98 20.83 22.89 14.85 26.57 30.98 31.14 30.74 32.50 32.80
53.48 51.17 49.33 48.04 49.69 50.87 51.15 50.82 50.44 50.01 48.32 39.86 37.78 35.70 30.63 26.05 28.99 29.68 31.18 32.06 32.52 33.23 33.73 35.17 36.34 37.72 38.38 35.67 31.45 28.95 27.51 27.55 29.03 29.91 30.22 31.46 28.03 23.33 19.38 15.97 22.83 25.44 29.43 29.42 28.41 29.37 33.44
53.29 51.15 48.30 47.61 49.27 50.34 50.82 50.48 49.86 49.04 49.02 40.40 37.53 37.13 33.42 28.69 28.27 30.13 29.66 30.90 30.26 28.76 31.35 34.11 37.28 38.26 36.36 32.57 29.17 24.45 21.77 23.61 23.97 27.23 30.48 31.07 29.48 25.55 23.48 18.54 18.23 23.78 30.00 31.90 31.62 24.58 32.17
53.22 51.72 47.85 46.98 48.72 49.68 49.42 49.88 49.53 49.35 48.25 41.15 37.42 36.96 34.29 29.50 30.42 31.08 30.20 30.65 31.52 30.04 30.15 31.27 33.93 34.99 34.90 30.04 28.41 24.80 22.04 24.63 22.35 21.32 22.90 25.22 24.97 23.14 22.57 20.26 23.92 28.35 31.46 32.16 21.96 24.74 32.06
53.11 52.16 48.40 46.77 47.89 49.37 48.55 49.23 49.48 49.53 48.70 40.06 36.16 37.19 35.14 30.04 31.27 33.00 34.59 32.32 32.32 31.93 29.63 32.64 32.17 32.60 31.74 28.36 28.52 26.37 23.49 24.95 22.89 24.11 22.89 24.83 22.51 21.79 22.53 19.52 17.00 32.07 30.59 27.21 30.43 31.55 33.42
53.05 52.64 49.19 47.13 47.80 48.31 49.50 48.73 49.09 49.11 47.93 42.56 36.14 38.43 38.25 33.99 33.28 34.63 35.60 36.30 35.79 36.53 34.00 31.81 31.23 31.91 33.20 28.33 28.24 27.46 27.30 23.95 22.79 22.28 24.82 24.12 27.18 24.64 26.46 25.81 31.45 32.28 32.69 33.33 33.39 34.18 34.01
MSLP
1020.31 1019.88 1019.48 1018.79 1018.20 1017.36 1016.58 1015.66 1014.81 1013.57 1010.94 1008.20 1009.15 1010.73 1012.39 1012.69 1012.89 1013.23 1013.33 1013.21 1013.25 1013.48 1013.25 1013.08 1013.19 1013.54 1014.06 1014.44 1014.59 1014.14 1012.99 1013.53 1014.21 1014.80 1015.56 1015.98 1016.37 1017.17 1017.93 1018.47 1018.70 1018.88 1018.95 1018.89 1018.64 1018.27 1018.02
1020.76 1020.18 1019.55 1018.87 1018.10 1017.31 1016.66 1015.81 1014.95 1014.09 1012.84 1010.78 1011.13 1012.30 1012.80 1012.84 1013.20 1013.33 1013.35 1013.09 1012.92 1013.12 1013.06 1013.02 1012.60 1012.93 1013.22 1014.28 1014.76 1014.49 1014.53 1014.50 1014.69 1015.33 1015.98 1016.19 1016.72 1017.21 1018.04 1018.65 1019.06 1019.25 1019.23 1018.97 1018.47 1017.75 1017.76
1020.84 1020.26 1019.66 1018.98 1018.18 1017.34 1016.75 1016.17 1015.27 1014.50 1014.21 1013.90 1013.65 1013.52 1013.22 1013.31 1013.46 1013.38 1013.25 1012.90 1012.81 1012.70 1012.49 1012.63 1012.77 1013.02 1013.78 1014.95 1014.98 1015.17 1015.12 1015.19 1015.26 1015.68 1016.35 1016.53 1016.80 1017.38 1018.20 1018.81 1019.15 1019.35 1019.54 1019.06 1018.09 1017.82 1017.49
1020.87 1020.33 1020.13 1019.20 1018.16 1017.42 1016.69 1016.29 1015.64 1014.99 1014.67 1014.54 1014.39 1013.71 1013.54 1013.54 1013.46 1013.32 1013.19 1012.68 1012.34 1011.71 1011.94 1012.32 1012.95 1013.25 1014.14 1015.27 1015.18 1015.34 1015.84 1015.93 1015.72 1016.02 1016.47 1016.72 1016.98 1017.81 1018.44 1019.08 1019.39 1019.84 1020.09 1019.83 1018.36 1017.94 1017.32
1021.09 1020.86 1020.15 1019.22 1018.29 1017.53 1016.83 1016.23 1015.85 1015.33 1015.04 1014.97 1014.68 1014.26 1014.05 1013.85 1013.44 1013.31 1012.88 1012.70 1012.15 1010.53 1011.28 1012.21 1013.16 1013.40 1014.95 1015.14 1015.40 1015.93 1015.87 1016.07 1016.18 1016.58 1016.79 1016.92 1017.45 1018.53 1019.00 1019.85 1020.45 1020.80 1021.00 1020.43 1019.07 1017.81 1017.46
1021.63 1021.10 1020.25 1019.48 1018.61 1017.67 1016.92 1016.20 1016.01 1015.56 1015.33 1015.28 1015.25 1015.01 1014.43 1014.16 1013.71 1013.53 1012.85 1012.55 1012.07 1012.16 1012.80 1012.92 1013.22 1013.91 1015.70 1015.62 1015.86 1016.04 1015.84 1015.94 1016.56 1017.22 1017.59 1017.97 1018.71 1019.40 1020.06 1020.72 1021.22 1021.29 1021.36 1020.57 1019.62 1017.89 1017.36
1022.01 1021.23 1020.56 1019.66 1018.80 1017.93 1016.95 1016.17 1015.78 1015.57 1015.49 1015.32 1015.32 1015.33 1015.02 1014.37 1013.84 1013.59 1013.26 1013.28 1013.45 1014.09 1014.00 1014.10 1014.32 1014.71 1015.33 1016.02 1016.15 1016.14 1016.04 1016.35 1016.95 1017.61 1018.44 1018.80 1019.56 1020.02 1020.21 1020.53 1020.84 1021.04 1021.13 1020.60 1018.88 1017.62 1017.44
1022.12 1021.62 1020.85 1019.90 1019.26 1018.36 1017.36 1016.50 1015.82 1015.55 1015.63 1015.69 1015.60 1015.48 1015.43 1015.15 1014.69 1014.16 1014.09 1015.01 1016.06 1016.22 1015.45 1015.01 1015.11 1015.22 1015.78 1015.84 1016.25 1016.47 1016.39 1016.93 1017.41 1018.18 1018.73 1019.29 1019.59 1019.32 1019.67 1020.22 1020.47 1020.61 1020.53 1019.46 1017.99 1016.72 1016.63
1022.23 1021.63 1020.78 1020.30 1019.55 1018.64 1017.69 1017.01 1016.32 1015.38 1015.40 1015.80 1015.85 1015.64 1015.56 1015.50 1015.20 1015.07 1015.54 1016.18 1016.44 1016.25 1016.11 1016.64 1016.36 1016.13 1016.31 1016.33 1016.41 1016.74 1016.77 1017.05 1017.45 1018.11 1018.76 1019.23 1018.86 1018.61 1019.29 1019.69 1019.98 1019.81 1019.77 1018.81 1018.03 1016.50 1015.41
1022.27 1021.56 1020.92 1020.51 1019.76 1018.93 1018.16 1017.70 1016.75 1015.91 1015.35 1015.62 1015.79 1015.83 1015.65 1015.69 1015.92 1016.23 1016.28 1016.37 1016.42 1016.48 1016.78 1018.09 1017.40 1017.24 1016.85 1016.48 1016.80 1016.92 1016.82 1017.21 1017.55 1017.98 1018.54 1018.79 1018.43 1018.51 1018.66 1019.00 1019.15 1018.71 1017.80 1017.54 1017.16 1016.61 1015.02
1022.57 1021.75 1021.43 1020.80 1020.21 1019.50 1018.72 1018.32 1017.69 1016.50 1015.88 1015.80 1016.00 1015.94 1015.97 1015.71 1016.84 1016.84 1016.99 1016.59 1016.43 1016.61 1017.58 1018.83 1018.09 1017.86 1017.17 1017.19 1017.17 1017.18 1017.03 1017.30 1017.43 1017.55 1017.97 1018.01 1017.76 1017.80 1017.83 1017.58 1017.72 1017.24 1016.70 1016.50 1016.01 1015.46 1014.87
1022.78 1022.24 1021.79 1021.26 1020.47 1019.83 1019.24 1018.66 1018.29 1017.66 1016.60 1016.14 1016.22 1016.22 1016.20 1016.64 1017.19 1017.43 1016.91 1016.37 1016.29 1016.64 1018.35 1018.60 1018.36 1018.02 1017.66 1017.45 1017.30 1017.38 1017.53 1017.75 1017.63 1017.57 1017.38 1017.36 1017.24 1017.26 1016.92 1016.76 1016.67 1016.35 1016.12 1015.39 1014.92 1014.73 1014.17
1022.96 1022.54 1021.83 1021.07 1020.46 1019.85 1019.36 1018.80 1018.22 1017.88 1017.47 1016.58 1016.13 1016.38 1016.39 1016.86 1017.31 1016.85 1016.72 1016.77 1016.90 1017.55 1018.90 1018.59 1018.36 1018.13 1017.89 1017.65 1017.75 1017.80 1017.87 1018.02 1017.99 1018.05 1017.59 1016.96 1016.65 1016.29 1016.21 1016.20 1015.50 1015.93 1015.76 1014.99 1014.46 1013.83 1012.99
1022.86 1022.48 1021.92 1021.16 1020.76 1020.28 1019.77 1019.05 1018.56 1017.98 1017.66 1017.46 1016.55 1016.18 1016.88 1016.75 1017.13 1017.14 1017.26 1017.61 1017.42 1018.26 1018.12 1018.18 1018.02 1018.24 1017.99 1017.79 1017.78 1017.71 1017.88 1018.01 1017.82 1018.20 1017.84 1017.43 1016.45 1015.73 1015.55 1015.45 1015.08 1014.81 1014.77 1014.79 1014.26 1013.54 1012.69
1022.94 1022.44 1021.95 1021.37 1021.01 1020.52 1019.83 1019.01 1018.44 1018.11 1017.62 1017.34 1017.42 1016.92 1016.93 1016.80 1016.88 1017.28 1017.79 1017.62 1018.16 1017.98 1017.88 1017.73 1017.89 1017.78 1017.86 1017.70 1017.71 1017.80 1017.84 1017.64 1017.36 1017.64 1017.80 1016.92 1015.87 1015.01 1014.85 1014.70 1014.68 1014.18 1014.24 1014.15 1013.82 1013.22 1012.89
1022.93 1022.52 1021.93 1021.40 1021.06 1020.61 1019.81 1019.31 1018.73 1018.14 1017.72 1017.16 1017.95 1017.64 1016.75 1016.45 1016.75 1017.16 1017.57 1018.12 1018.28 1017.86 1017.67 1017.58 1017.50 1017.43 1017.46 1017.47 1017.56 1017.66 1017.29 1016.90 1016.77 1016.88 1017.20 1016.74 1016.02 1014.54 1014.22 1014.47 1014.21 1014.21 1014.09 1013.93 1013.82 1013.47 1012.96
1022.86 1022.53 1022.15 1021.53 1020.92 1020.37 1019.92 1019.55 1018.90 1017.98 1017.20 1017.05 1017.86 1017.90 1016.38 1016.28 1016.59 1017.32 1019.01 1019.24 1018.71 1017.95 1017.64 1017.53 1017.24 1017.21 1017.01 1017.06 1017.01 1017.03 1016.75 1016.31 1016.16 1016.34 1016.67 1016.48 1016.16 1014.59 1014.22 1013.94 1013.58 1013.95 1013.80 1013.93 1014.05 1013.74 1013.49
1022.94 1022.56 1022.14 1021.72 1021.10 1020.54 1020.08 1019.61 1018.82 1018.11 1017.26 1017.30 1017.94 1018.07 1016.16 1016.17 1017.62 1019.47 1019.97 1019.51 1018.80 1018.32 1017.78 1017.34 1017.10 1016.71 1016.79 1016.84 1016.92 1016.72 1016.21 1015.74 1015.45 1015.82 1016.12 1015.82 1015.73 1014.92 1013.62 1013.10 1012.76 1012.89 1013.16 1013.52 1013.91 1013.96 1013.81
1022.81 1022.59 1022.19 1021.69 1021.28 1020.84 1020.19 1019.56 1018.87 1018.33 1018.03 1018.61 1019.13 1018.84 1016.79 1016.41 1019.25 1020.59 1020.18 1019.54 1019.04 1018.32 1018.02 1017.58 1017.11 1016.84 1016.69 1016.84 1016.98 1016.49 1015.93 1015.23 1015.26 1015.52 1015.31 1015.30 1015.53 1015.05 1013.77 1013.46 1012.91 1013.24 1013.33 1013.15 1013.50 1013.92 1013.90
1022.80 1022.50 1022.25 1021.85 1021.25 1020.76 1020.16 1019.61 1019.12 1018.81 1018.30 1018.84 1019.56 1019.77 1019.00 1019.17 1020.71 1020.87 1021.08 1020.39 1019.28 1018.33 1018.09 1017.77 1017.48 1016.84 1016.80 1017.02 1016.85 1016.66 1016.14 1015.40 1015.10 1015.09 1015.00 1015.14 1015.55 1015.65 1015.40 1014.74 1014.42 1013.88 1013.45 1013.11 1013.16 1013.65 1013.73
1022.62 1022.49 1022.18 1021.84 1021.43 1020.86 1020.33 1019.66 1019.10 1018.67 1018.45 1018.87 1019.89 1021.34 1020.96 1021.20 1021.56 1021.56 1021.09 1020.69 1020.06 1019.13 1018.27 1017.95 1017.80 1017.87 1017.74 1017.55 1017.38 1017.18 1016.65 1016.10 1015.43 1015.28 1015.28 1015.53 1015.89 1015.98 1015.48 1015.01 1014.62 1014.16 1013.95 1013.53 1013.29 1013.41 1013.54
1022.41 1022.41 1022.28 1021.93 1021.49 1020.86 1020.27 1019.65 1019.08 1018.85 1018.69 1019.44 1020.56 1021.02 1021.18 1021.52 1021.34 1021.07 1021.18 1021.10 1020.55 1019.71 1019.12 1018.72 1018.66 1018.33 1017.82 1018.14 1018.43 1018.09 1017.70 1017.03 1016.73 1016.10 1015.99 1016.05 1016.34 1016.41 1015.90 1015.28 1014.85 1014.17 1013.75 1013.47 1013.39 1013.50 1013.56
1022.23 1022.24 1022.24 1022.01 1021.52 1021.04 1020.18 1019.74 1019.42 1019.40 1019.29 1020.24 1020.88 1020.96 1020.99 1021.55 1021.64 1021.72 1021.94 1021.28 1020.74 1020.12 1019.31 1018.94 1018.94 1018.65 1018.03 1017.89 1018.04 1017.77 1017.59 1017.45 1017.23 1017.20 1017.00 1016.89 1016.92 1016.95 1016.41 1015.67 1014.81 1014.33 1013.54 1013.47 1013.44 1013.47 1013.58
1022.13 1022.17 1022.10 1022.04 1021.65 1021.04 1020.37 1019.82 1019.78 1019.71 1019.85 1020.64 1021.10 1021.17 1021.46 1022.07 1021.47 1020.85 1021.01 1020.94 1020.41 1020.13 1019.85 1019.02 1018.63 1018.44 1018.10 1017.66 1017.43 1017.40 1017.47 1017.30 1017.17 1016.90 1017.02 1017.29 1017.75 1017.97 1017.50 1016.11 1015.09 1013.59 1013.18 1013.16 1013.26 1013.11 1013.06
1022.02 1021.97 1022.01 1021.95 1021.67 1021.08 1020.70 1020.11 1019.99 1019.84 1020.11 1020.78 1021.42 1021.39 1021.58 1021.92 1021.69 1021.30 1020.68 1020.45 1020.38 1019.84 1019.51 1019.01 1018.51 1018.29 1018.12 1017.93 1017.91 1017.85 1017.67 1017.35 1017.07 1016.95 1017.09 1017.31 1017.72 1018.18 1018.04 1017.21 1014.94 1013.50 1013.00 1013.02 1013.08 1012.72 1012.44
1021.80 1021.88 1021.83 1021.84 1021.61 1021.31 1021.06 1020.77 1020.39 1020.16 1020.24 1020.87 1021.73 1022.01 1021.70 1021.77 1021.62 1020.92 1020.90 1020.50 1020.13 1019.95 1019.75 1018.88 1018.34 1017.94 1018.03 1018.60 1018.88 1019.00 1018.71 1018.35 1018.07 1017.32 1016.99 1017.38 1017.68 1018.41 1018.16 1017.50 1015.40 1013.64 1012.91 1012.84 1013.00 1012.99 1012.38
1021.39 1021.63 1021.55 1021.62 1021.66 1021.38 1021.20 1021.10 1020.84 1020.45 1020.17 1020.73 1021.52 1021.89 1022.30 1022.36 1021.15 1020.55 1020.37 1020.25 1020.22 1020.04 1019.95 1019.41 1018.62 1018.33 1018.22 1019.01 1019.65 1020.08 1019.63 1019.14 1018.89 1018.31 1017.85 1018.02 1018.26 1018.42 1018.21 1017.38 1015.02 1013.71 1013.27 1013.28 1013.64 1013.41 1012.58
1020.94 1021.18 1021.42 1021.45 1021.49 1021.27 1021.12 1020.98 1020.85 1020.72 1020.28 1020.42 1021.22 1021.59 1022.20 1022.42 1021.53 1021.00 1020.23 1019.77 1019.99 1020.32 1020.59 1020.27 1020.21 1019.41 1019.03 1019.54 1019.98 1020.03 1020.08 1019.65 1019.60 1018.76 1018.16 1018.14 1018.21 1018.17 1017.85 1017.03 1015.22 1013.43 1013.68 1013.72 1013.07 1012.75 1012.68
1020.42 1020.66 1021.00 1021.16 1021.37 1021.13 1021.07 1020.85 1020.96 1020.91 1020.63 1020.46 1020.83 1020.86 1021.43 1022.14 1021.44 1021.10 1020.50 1019.89 1019.34 1019.30 1019.80 1020.01 1020.86 1021.01 1020.78 1020.62 1020.58 1020.43 1020.23 1019.84 1019.41 1019.07 1017.99 1017.97 1017.18 1017.13 1016.68 1014.77 1013.48 1013.17 1012.95 1012.57 1012.76 1012.94 1012.79
Wind_Speed
26 26 26 26 24 26 28 31 31 36 43 16 13 7 2 6 7 7 7 8 9 9 10 13 12 13 8 5 2 10 3 12 8 7 5 4 5 3 4 3 1 1 3 4 5 9 6
25 23 23 23 24 26 27 29 31 31 37 38 29 19 10 13 9 8 8 9 11 11 10 11 18 8 3 4 3 11 9 6 9 6 4 4 4 4 5 2 1 1 3 8 7 10 5
23 22 23 22 23 26 27 27 28 29 26 24 21 17 14 11 9 9 10 12 13 14 13 10 1 3 4 6 1 6 9 4 3 5 5 3 4 6 2 2 1 3 6 7 5 2 5
23 22 23 22 24 25 25 26 25 25 26 19 13 14 15 14 13 14 13 15 16 15 8 9 11 2 6 2 2 7 7 5 7 7 6 5 7 5 3 2 4 4 3 5 3 1 4
24 24 22 22 24 24 24 24 24 22 22 21 20 18 17 16 16 16 15 13 13 11 7 15 5 2 7 3 4 5 7 5 6 5 6 4 5 3 3 3 5 5 2 3 9 2 2
24 23 23 23 24 24 24 23 22 20 19 19 19 18 18 16 15 14 14 9 10 10 11 6 3 7 0 5 4 2 2 6 6 5 5 5 5 3 3 4 3 2 3 5 7 5 3
23 22 24 25 24 24 23 21 21 20 17 17 17 17 16 17 16 12 6 4 6 6 7 8 5 7 7 8 3 1 4 6 3 5 3 1 4 4 7 5 4 1 3 10 13 14 9
22 23 24 25 26 25 22 20 20 21 16 15 15 15 16 10 17 15 5 6 3 2 8 12 9 9 8 4 6 2 3 4 2 3 2 4 4 8 6 5 5 6 8 12 13 12 6
21 22 23 25 26 25 22 22 18 16 16 11 13 14 15 5 8 7 9 6 2 1 4 8 7 6 5 4 4 6 4 2 2 3 5 4 4 6 6 2 4 6 8 12 13 11 14
20 21 22 24 26 25 22 21 19 18 15 12 13 14 15 2 6 4 4 7 1 2 6 6 6 5 1 2 5 2 1 2 1 5 4 5 5 4 5 5 8 11 9 16 16 10 5
21 20 23 23 25 25 21 19 20 19 17 14 12 12 12 12 1 4 5 4 3 1 6 4 2 4 5 4 5 1 2 3 3 2 3 6 2 3 7 6 11 9 6 9 12 14 13
20 21 22 23 25 26 24 20 17 15 14 12 10 9 6 5 3 1 6 2 2 7 5 2 2 5 2 4 3 2 2 1 3 4 2 7 0 3 6 4 7 7 9 13 11 6 5
19 20 20 22 22 24 24 22 20 15 8 9 9 9 4 3 0 4 1 2 7 7 1 3 5 3 1 3 3 4 4 2 1 2 3 3 5 3 3 5 3 8 6 5 4 3 5
18 19 20 20 22 23 24 24 22 20 16 7 6 9 2 2 2 1 4 5 10 4 5 0 4 5 3 2 2 1 2 3 5 3 3 2 7 7 6 7 2 5 3 2 5 3 5
17 17 18 20 22 23 23 23 22 22 19 13 6 3 2 2 4 3 4 6 4 2 3 5 3 1 1 1 2 4 4 3 3 9 4 2 5 2 7 4 3 2 3 2 4 3 3
16 17 17 19 21 23 24 24 24 23 22 11 2 4 1 1 5 4 5 7 3 3 2 2 2 1 2 2 2 1 3 4 3 8 6 2 6 5 1 4 6 4 3 1 1 4 4
15 16 17 18 19 20 23 25 25 26 23 5 4 4 3 2 3 7 5 4 4 4 2 3 1 2 1 4 3 3 2 3 4 5 8 3 2 6 1 5 1 3 2 2 2 2 3
14 15 16 17 18 20 21 23 24 25 25 7 3 4 4 2 7 2 2 4 4 3 1 2 2 1 4 4 2 2 3 5 5 6 5 6 2 5 5 2 3 2 1 4 2 2 1
11 14 16 16 18 19 20 20 22 21 17 2 3 2 5 4 5 4 5 3 1 6 4 5 3 3 3 2 1 1 2 3 3 6 4 3 0 5 4 2 2 4 5 4 4 2 2
12 12 15 17 16 18 19 19 19 18 15 4 3 4 6 6 2 4 4 5 6 6 1 2 4 1 3 4 4 1 5 2 4 2 1 2 2 2 4 5 3 5 9 6 3 2 1
10 11 13 16 18 19 20 20 19 14 12 4 3 1 2 1 5 4 2 3 5 7 5 7 5 6 3 4 6 5 4 6 3 7 2 2 1 3 5 5 3 3 4 7 3 2 2
9 10 12 15 17 19 19 20 15 11 7 5 3 3 3 2 1 3 4 4 5 6 5 6 4 7 6 5 1 5 4 4 2 6 5 4 2 2 3 0 3 4 4 2 4 4 5
10 8 11 14 16 20 19 16 12 12 6 3 1 1 5 2 2 5 1 1 3 5 1 3 2 3 4 3 5 8 6 4 5 3 3 3 3 4 5 4 5 3 2 1 1 1 5
11 7 9 12 15 17 17 13 12 12 6 3 1 3 4 0 2 5 6 2 1 2 2 5 1 1 2 6 3 1 3 6 5 5 2 2 2 1 4 6 4 5 2 3 3 6 6
11 6 7 10 12 14 12 10 11 11 10 4 2 2 3 1 1 1 6 5 2 4 3 3 3 3 5 4 3 4 5 3 1 0 2 1 3 2 2 2 6 1 3 4 3 6 7
10 6 4 7 9 11 10 10 10 10 10 4 2 2 2 5 5 1 1 2 4 2 3 4 3 3 4 3 4 2 3 1 4 9 2 3 4 4 1 1 5 3 2 1 2 7 5
10 7 4 4 6 7 6 9 9 8 7 4 1 2 3 1 4 5 4 4 2 1 2 4 4 3 2 3 2 1 4 1 2 3 2 3 2 3 2 4 9 4 2 2 3 7 2
11 9 7 4 4 4 3 5 8 8 5 4 1 2 2 1 5 5 4 5 2 2 1 4 4 3 2 3 3 3 3 3 3 4 3 4 3 4 2 2 7 5 2 6 5 3 3
11 11 10 7 6 4 4 4 6 8 4 3 1 2 3 2 5 2 5 4 4 6 4 1 3 3 3 4 1 2 3 1 4 4 1 4 7 4 8 7 5 6 8 5 5 5 4
Wind_Direction
6 6 8 9 360 0 1 360 1 6 359 324 222 132 124 93 65 10 352 337 325 328 318 305 299 311 126 85 35 324 197 150 95 79 101 106 75 102 110 92 34 118 313 319 297 287 261
11 9 9 10 357 4 2 3 2 15 22 32 50 50 49 49 28 18 353 332 318 313 299 297 291 228 138 124 290 20 26 56 78 79 80 61 125 119 102 87 78 316 278 283 271 269 258
7 2 8 4 356 8 9 7 8 12 33 47 34 20 32 28 13 4 348 329 313 302 294 293 34 111 60 110 323 82 21 42 52 92 83 45 95 76 95 86 311 321 330 309 269 285 250
4 3 6 2 359 7 10 10 10 14 19 32 27 12 19 11 3 358 349 327 320 293 276 258 160 49 57 37 155 85 47 26 63 72 92 72 87 96 67 135 6 345 49 356 290 340 285
3 8 6 1 1 8 8 11 7 17 20 18 14 8 10 11 9 354 351 344 357 47 143 137 125 153 113 165 106 106 135 116 86 49 55 61 62 82 41 68 15 8 287 285 304 213 233
5 5 7 1 358 6 7 12 6 11 20 19 15 10 2 9 8 2 352 4 22 52 75 81 44 71 120 108 99 120 166 105 91 78 45 46 51 62 21 81 235 248 300 286 257 292 184
5 3 359 359 359 0 6 13 17 12 16 23 21 7 6 1 9 18 15 16 25 40 24 46 59 91 111 105 138 326 125 83 100 64 76 14 66 219 220 209 177 155 253 263 266 270 296
6 2 358 355 358 360 6 16 26 34 29 25 26 21 11 27 41 32 58 61 55 338 65 28 69 70 106 158 104 206 126 92 110 91 81 45 236 233 201 212 227 254 276 278 288 272 232
5 5 358 359 355 2 9 18 24 44 42 39 30 27 25 23 15 28 58 56 97 14 67 38 11 56 94 35 103 165 138 108 107 147 184 183 235 18 163 191 240 248 247 269 262 299 266
5 4 360 360 355 2 18 22 30 40 55 64 44 34 30 336 22 311 52 354 192 235 87 14 22 14 221 260 69 100 149 79 205 216 189 235 248 220 220 238 202 275 230 249 265 287 289
2 4 359 2 358 2 8 21 32 45 64 67 48 36 49 58 114 32 316 309 246 128 77 8 45 307 5 30 140 216 70 347 301 304 145 254 252 227 252 246 169 242 247 258 263 266 291
1 360 3 1 1 359 2 3 10 39 66 75 60 39 67 34 65 297 311 298 350 42 62 37 48 116 26 170 138 93 105 61 261 315 262 244 282 256 220 244 220 285 293 277 256 245 247
3 357 360 359 0 359 360 358 353 358 41 85 93 66 76 114 268 314 336 9 51 70 199 43 97 173 45 102 121 187 185 217 263 331 295 334 249 208 189 286 237 227 271 303 339 216 240
3 357 355 359 357 1 358 357 354 352 346 321 121 113 355 161 159 189 44 49 67 45 66 322 112 113 99 205 47 108 99 284 254 240 305 289 329 194 179 223 269 188 228 265 299 295 293
357 358 354 354 357 358 357 353 355 352 350 331 313 336 73 238 164 103 89 43 71 66 117 127 181 135 109 229 207 216 214 263 265 178 224 284 272 147 201 177 207 47 233 189 266 230 275
354 352 353 353 356 355 353 352 352 353 352 360 351 304 306 150 146 110 63 82 76 35 74 53 86 339 114 111 158 193 217 197 261 179 207 318 289 219 173 128 261 235 327 303 246 298 297
351 349 349 351 352 353 350 351 350 351 349 38 60 9 254 355 119 47 53 31 339 339 47 151 198 140 194 186 218 205 240 239 218 179 190 297 243 294 36 196 170 195 240 235 271 273 309
345 344 349 347 348 349 351 351 349 352 353 58 88 39 301 89 54 40 46 330 328 302 323 299 234 185 180 177 193 266 257 223 195 157 197 209 214 279 245 159 220 208 224 188 243 351 285
342 341 344 346 345 346 346 348 349 353 19 11 40 239 311 62 81 352 326 338 265 8 16 18 13 25 17 177 107 235 283 275 209 180 230 173 287 318 11 24 6 21 312 239 134 208 263
336 337 340 341 343 343 341 341 338 351 4 85 84 36 342 47 33 93 10 350 350 341 353 16 357 328 52 24 352 27 343 303 322 319 182 102 115 143 179 250 314 324 328 357 154 123 74
324 331 341 339 340 342 337 332 336 350 360 89 31 290 191 8 19 66 69 355 346 4 355 20 36 37 296 17 349 7 329 323 344 355 35 82 237 155 241 245 293 278 320 22 79 274 111
310 329 339 342 341 342 340 332 348 358 7 77 107 113 3 92 113 84 358 3 22 329 5 354 51 329 14 82 144 298 348 20 330 326 8 357 280 38 274 197 321 293 354 48 45 48 53
305 322 340 344 346 346 350 354 17 14 39 65 20 23 107 288 82 81 274 318 344 337 3 126 294 321 3 297 228 233 219 258 254 320 311 17 2 23 275 359 315 323 270 3 269 170 156
316 306 340 346 350 351 358 18 28 29 56 111 262 95 78 207 150 162 172 198 238 308 253 301 332 25 277 314 273 210 226 257 258 270 214 335 95 103 268 355 17 240 221 191 238 242 214
308 280 332 345 350 356 358 25 31 40 41 81 343 83 115 155 192 250 161 168 270 289 213 223 260 244 318 345 19 357 339 333 325 113 348 41 111 4 60 216 283 264 216 190 166 282 196
291 246 309 333 348 2 10 27 36 32 33 86 51 328 81 123 239 244 199 262 167 213 317 251 291 281 47 65 40 17 263 250 308 329 136 91 77 114 13 62 259 263 275 94 79 287 204
271 229 253 302 340 11 24 10 11 14 43 98 87 39 52 358 251 165 178 192 147 41 233 297 293 358 22 64 53 303 286 244 268 267 281 323 5 187 211 256 289 230 209 105 103 245 164
264 214 231 253 296 337 313 358 355 349 30 105 174 86 106 225 276 217 215 153 124 99 134 318 353 321 69 100 155 196 184 254 327 255 216 203 180 211 147 223 281 165 125 172 221 280 268
258 214 216 227 253 276 300 301 339 354 28 121 121 126 122 165 247 283 270 282 176 159 152 85 195 327 325 44 353 105 246 177 174 265 191 264 195 202 186 219 223 202 215 216 177 213 231